This demonstration page uses our WeatherBlox Daily Observations layout. Learn more.

Left ArrowRight Arrow

Hourly Observations for January 9, 2017

Temp ( °F °C ) Dew Point ( °F °C ) Humidity (%) Winds ( mph kmh ) Pressure ( in mb ) Visibility ( mi km ) Precip ( " mm )
12:15 am 00:15 Partly Cloudy 19 -7 15 -9.3 84 84 Calm 30.36 1028 10 16 0.00 0.00
12:35 am 00:35 Cloudy 19 -7.3 15 -9.2 86 86 ENE 3 6 30.33 1027 10 16 0.00 0.00
12:55 am 00:55 Mostly Cloudy 21 -6.2 16 -8.7 83 83 E 3 6 30.33 1027 10 16 0.00 0.00
1:15 am 01:15 Cloudy 22 -5.8 17 -8.1 84 84 E 6 9 30.33 1027 10 16 0.00 0.00
1:35 am 01:35 Cloudy 22 -5.5 18 -8 83 83 Calm 30.33 1027 10 16 0.00 0.00
1:55 am 01:55 Cloudy 22 -5.5 19 -7.5 86 86 E 6 9 30.33 1027 10 16 0.00 0.00
2:15 am 02:15 Cloudy 24 -4.2 19 -7.3 79 79 E 7 11 30.27 1025 10 16 0.00 0.00
2:35 am 02:35 Mostly Cloudy 24 -4.5 18 -7.6 79 79 E 6 9 30.27 1025 10 16 0.00 0.00
2:55 am 02:55 Partly Cloudy 22 -5.5 17 -8.1 82 82 E 6 9 30.30 1026 10 16 0.00 0.00
3:15 am 03:15 Clear 20 -6.6 16 -9 83 83 E 6 9 30.30 1026 10 16 0.00 0.00
3:35 am 03:35 Clear 19 -7.1 15 -9.5 83 83 E 7 11 30.30 1026 10 16 0.00 0.00
3:55 am 03:55 Clear 20 -6.7 16 -9.1 83 83 E 8 13 30.27 1025 10 16 0.00 0.00
4:15 am 04:15 Clear 20 -6.7 14 -10.1 77 77 E 8 13 30.24 1024 10 16 0.00 0.00
4:35 am 04:35 Clear 20 -6.7 13 -10.4 75 75 E 9 15 30.24 1024 10 16 0.00 0.00
4:55 am 04:55 Clear 20 -6.8 14 -10 78 78 ESE 12 19 30.21 1023 10 16 0.00 0.00
5:15 am 05:15 Clear 20 -6.8 14 -9.8 79 79 ESE 13 20 30.21 1023 10 16 0.00 0.00
5:35 am 05:35 Clear 20 -6.8 14 -9.8 79 79 ESE 12 19 30.18 1022 10 16 0.00 0.00
5:55 am 05:55 Clear 20 -6.8 14 -9.8 79 79 SE 13 20 30.18 1022 10 16 0.00 0.00
6:15 am 06:15 Clear 20 -6.7 15 -9.7 79 79 SE 12 19 30.18 1022 10 16 0.00 0.00
6:35 am 06:35 Clear 20 -6.4 15 -9.5 79 79 SE 12 19 30.15 1021 10 16 0.00 0.00
6:55 am 06:55 Clear 21 -6.2 15 -9.2 80 80 SE 12 19 30.12 1020 10 16 0.00 0.00
7:15 am 07:15 Clear 20 -6.5 15 -9.5 80 80 SSE 14 22 30.12 1020 10 16 0.00 0.00
7:35 am 07:35 Clear 20 -6.8 15 -9.6 81 81 SSE 14 22 30.15 1021 10 16 0.00 0.00
7:55 am 07:55 Clear 19 -7 15 -9.7 81 81 SSE 14 22 30.12 1020 10 16 0.00 0.00
8:15 am 08:15 Sunny 19 -7.2 14 -9.8 82 82 SSE 12 19 30.12 1020 10 16 0.00 0.00
8:35 am 08:35 Sunny 20 -6.8 15 -9.6 81 81 SSE 13 20 30.06 1018 10 16 0.00 0.00
8:55 am 08:55 Sunny 21 -6.2 16 -9.1 80 80 SSE 15 24 30.06 1018 10 16 0.00 0.00
9:15 am 09:15 Sunny 22 -5.5 17 -8.5 80 80 SSE 14 22 30.03 1017 10 16 0.00 0.00
9:35 am 09:35 Sunny 24 -4.6 18 -7.7 79 79 SSE 15 24 30.03 1017 10 16 0.00 0.00
9:55 am 09:55 Sunny 25 -3.8 19 -7.2 78 78 SSE 16 26 29.97 1015 10 16 0.00 0.00
10:15 am 10:15 Sunny 27 -2.7 20 -6.5 75 75 SSE 15 24 29.97 1015 10 16 0.00 0.00
10:35 am 10:35 Sunny 29 -1.7 21 -6.3 71 71 S 16 26 29.91 1013 10 16 0.00 0.00
10:55 am 10:55 Sunny 31 -0.7 21 -6 68 68 S 16 26 29.91 1013 10 16 0.00 0.00
11:15 am 11:15 Sunny 31 -0.4 22 -5.7 68 68 S 15 24 29.91 1013 10 16 0.00 0.00
11:35 am 11:35 Sunny 32 -0.1 22 -5.6 67 67 S 15 24 29.88 1012 10 16 0.00 0.00
11:55 am 11:55 Sunny 32 0.2 22 -5.5 66 66 S 13 20 29.88 1012 10 16 0.00 0.00
12:15 pm 12:15 Sunny 33 0.5 22 -5.7 64 64 S 14 22 29.88 1012 10 16 0.00 0.00
12:35 pm 12:35 Sunny 35 1.5 23 -5.2 61 61 SSW 18 30 29.85 1011 10 16 0.00 0.00
12:55 pm 12:55 Sunny 35 1.7 24 -4.7 63 63 SSW 13 20 29.83 1010 10 16 0.00 0.00
1:15 pm 13:15 Sunny 35 1.6 24 -4.3 65 65 SSW 14 22 29.80 1009 10 16 0.00 0.00
1:35 pm 13:35 Sunny 35 1.6 24 -4.3 65 65 SSW 9 15 29.80 1009 10 16 0.00 0.00
1:55 pm 13:55 Sunny 36 2.3 25 -3.7 65 65 SSW 10 17 29.77 1008 10 16 0.00 0.00
2:15 pm 14:15 Sunny 37 3 26 -3.5 63 63 SSW 14 22 29.77 1008 10 16 0.00 0.00
2:30 pm 14:30 Sunny 38 3.1 26 -3.4 63 63 SSW 12 19 29.74 1007 10 16 0.00 0.00
2:55 pm 14:55 Sunny 38 3.6 27 -3 62 62 SSW 7 11 29.71 1006 10 16 0.00 0.00
3:15 pm 15:15 Sunny 39 3.7 27 -2.9 62 62 S 9 15 29.71 1006 10 16 0.00 0.00
3:35 pm 15:35 Sunny 39 3.7 27 -2.6 64 64 S 8 13 29.68 1005 10 16 0.00 0.00
3:55 pm 15:55 Sunny 39 4.1 28 -2.5 63 63 S 10 17 29.68 1005 10 16 0.00 0.00
4:15 pm 16:15 Sunny 39 4.1 28 -2.4 63 63 S 9 15 29.68 1005 10 16 0.00 0.00
4:35 pm 16:35 Sunny 39 4 28 -2.5 63 63 S 9 15 29.68 1005 10 16 0.00 0.00
4:55 pm 16:55 Sunny 39 3.7 28 -2.2 66 66 S 8 13 29.68 1005 10 16 0.00 0.00
5:15 pm 17:15 Sunny 39 3.8 28 -2.2 65 65 SSW 8 13 29.68 1005 10 16 0.00 0.00
5:35 pm 17:35 Clear 38 3.2 28 -2.3 68 68 S 7 11 29.65 1004 10 16 0.00 0.00
5:55 pm 17:55 Clear 37 3 28 -2.5 67 67 S 8 13 29.62 1003 10 16 0.00 0.00
6:15 pm 18:15 Clear 37 2.5 27 -2.6 69 69 SW 3 6 29.65 1004 10 16 0.00 0.00
6:35 pm 18:35 Clear 36 2.4 27 -2.7 69 69 S 10 17 29.65 1004 10 16 0.00 0.00
6:55 pm 18:55 Clear 37 2.5 27 -2.7 69 69 SSW 9 15 29.65 1004 10 16 0.00 0.00
7:15 pm 19:15 Clear 37 2.9 27 -2.8 66 66 S 6 9 29.62 1003 10 16 0.00 0.00
7:35 pm 19:35 Clear 37 2.8 27 -2.8 67 67 S 10 17 29.62 1003 10 16 0.00 0.00
7:55 pm 19:55 Clear 36 2.4 27 -3 68 68 S 7 11 29.59 1002 10 16 0.00 0.00
8:15 pm 20:15 Clear 36 2.2 26 -3.1 68 68 S 8 13 29.59 1002 10 16 0.00 0.00
8:35 pm 20:35 Clear 35 1.8 27 -3 71 71 S 9 15 29.56 1001 10 16 0.00 0.00
8:55 pm 20:55 Clear 35 1.7 26 -3.1 71 71 S 6 9 29.59 1002 10 16 0.00 0.00
9:15 pm 21:15 Clear 33 0.8 26 -3.2 75 75 S 6 9 29.59 1002 10 16 0.00 0.00
9:35 pm 21:35 Clear 33 0.8 26 -3.2 75 75 Calm 29.59 1002 10 16 0.00 0.00
9:55 pm 21:55 Clear 33 0.3 26 -3.4 76 76 Calm 29.59 1002 10 16 0.00 0.00
10:15 pm 22:15 Clear 31 -0.8 25 -3.9 80 80 Calm 29.56 1001 10 16 0.00 0.00
10:35 pm 22:35 Clear 32 0 27 -3 80 80 Calm 29.56 1001 10 16 0.00 0.00
10:55 pm 22:55 Partly Cloudy 31 -0.4 26 -3.3 81 81 Calm 29.56 1001 10 16 0.00 0.00
11:15 pm 23:15 Partly Cloudy 32 0 26 -3.2 79 79 Calm 29.56 1001 10 16 0.00 0.00
11:35 pm 23:35 Partly Cloudy 31 -0.5 27 -3 83 83 Calm 29.53 1000 10 16 0.00 0.00
11:55 pm 23:55 Clear 31 -0.3 27 -2.6 85 85 Calm 29.53 1000 10 16 0.00 0.00

Powered by AerisWeather